contact:dominique.lefevre@mio.osupytheas.fr, maurice.libes@osupytheas.fr, didier.mallarino@osupytheas.fr
Project:EMSO http://www.emso-fr.org/EMSO-France
Depth: 2436.0 m
Title:EMSO Ligure Ouest : Data MII capteur MICROCAT
DateTime_Computer,Latitude,Longitude,Temperature,Conductivity,Pressure,DateTime_Instrument
DateTime_Computer,Latitude,Longitude,degC,S m-1,dbar,DateTime_Instrument
2023-06-13T00:01:59Z,42.805,6.029,13.3019,4.60081,2470.73,2023-6-13T02:04:13Z
2023-06-13T00:05:02Z,42.805,6.029,13.3023,4.60080,2470.717,2023-6-13T02:07:16Z
2023-06-13T00:08:05Z,42.805,6.029,13.3029,4.60081,2470.717,2023-6-13T02:10:19Z
2023-06-13T00:11:08Z,42.805,6.029,13.3023,4.60081,2470.763,2023-6-13T02:13:22Z
2023-06-13T00:14:11Z,42.805,6.029,13.3022,4.60081,2470.717,2023-6-13T02:16:25Z
2023-06-13T00:17:14Z,42.805,6.029,13.3027,4.60080,2470.74,2023-6-13T02:19:28Z
2023-06-13T00:20:17Z,42.805,6.029,13.3024,4.60081,2470.73,2023-6-13T02:22:31Z
2023-06-13T00:23:20Z,42.805,6.029,13.3025,4.60081,2470.703,2023-6-13T02:25:34Z
2023-06-13T00:26:23Z,42.805,6.029,13.3026,4.60081,2470.74,2023-6-13T02:28:37Z
2023-06-13T00:29:26Z,42.805,6.029,13.3023,4.60081,2470.73,2023-6-13T02:31:40Z
2023-06-13T00:32:30Z,42.805,6.029,13.3025,4.60081,2470.763,2023-6-13T02:34:43Z
2023-06-13T00:35:33Z,42.805,6.029,13.3025,4.60080,2470.74,2023-6-13T02:37:46Z
2023-06-13T00:38:36Z,42.805,6.029,13.3029,4.60081,2470.717,2023-6-13T02:40:50Z
2023-06-13T00:41:39Z,42.805,6.029,13.3025,4.60080,2470.763,2023-6-13T02:43:53Z
2023-06-13T00:44:42Z,42.805,6.029,13.3024,4.60081,2470.754,2023-6-13T02:46:56Z
2023-06-13T00:47:45Z,42.805,6.029,13.3026,4.60084,2470.763,2023-6-13T02:49:59Z
2023-06-13T00:50:48Z,42.805,6.029,13.3026,4.60081,2470.763,2023-6-13T02:53:02Z
2023-06-13T00:53:51Z,42.805,6.029,13.3026,4.60083,2470.763,2023-6-13T02:56:05Z
2023-06-13T00:56:54Z,42.805,6.029,13.3026,4.60082,2470.74,2023-6-13T02:59:08Z
2023-06-13T00:59:57Z,42.805,6.029,13.3021,4.60082,2470.754,2023-6-13T03:02:11Z
2023-06-13T01:03:00Z,42.805,6.029,13.3020,4.60081,2470.763,2023-6-13T03:05:14Z
2023-06-13T01:06:03Z,42.805,6.029,13.3024,4.60081,2470.787,2023-6-13T03:08:17Z
2023-06-13T01:09:06Z,42.805,6.029,13.3025,4.60082,2470.787,2023-6-13T03:11:20Z
2023-06-13T01:12:10Z,42.805,6.029,13.3023,4.60081,2470.8,2023-6-13T03:14:23Z
2023-06-13T01:15:13Z,42.805,6.029,13.3024,4.60083,2470.8,2023-6-13T03:17:27Z
2023-06-13T01:18:16Z,42.805,6.029,13.3023,4.60081,2470.74,2023-6-13T03:20:30Z
2023-06-13T01:21:19Z,42.805,6.029,13.3026,4.60086,2470.787,2023-6-13T03:23:33Z
2023-06-13T01:24:22Z,42.805,6.029,13.3026,4.60082,2470.777,2023-6-13T03:26:36Z
2023-06-13T01:27:25Z,42.805,6.029,13.3027,4.60084,2470.777,2023-6-13T03:29:39Z
2023-06-13T01:30:28Z,42.805,6.029,13.3022,4.60083,2470.787,2023-6-13T03:32:42Z
2023-06-13T01:33:31Z,42.805,6.029,13.3024,4.60081,2470.763,2023-6-13T03:35:45Z
2023-06-13T01:36:34Z,42.805,6.029,13.3025,4.60086,2470.8,2023-6-13T03:38:48Z
2023-06-13T01:39:37Z,42.805,6.029,13.3025,4.60081,2470.763,2023-6-13T03:41:51Z
2023-06-13T01:42:40Z,42.805,6.029,13.3021,4.60083,2470.787,2023-6-13T03:44:54Z
2023-06-13T01:45:43Z,42.805,6.029,13.3026,4.60087,2470.763,2023-6-13T03:47:57Z
2023-06-13T01:48:46Z,42.805,6.029,13.3025,4.60085,2470.787,2023-6-13T03:51:00Z
2023-06-13T01:51:50Z,42.805,6.029,13.3022,4.60081,2470.787,2023-6-13T03:54:03Z
2023-06-13T01:54:53Z,42.805,6.029,13.3026,4.60085,2470.787,2023-6-13T03:57:07Z
2023-06-13T01:57:56Z,42.805,6.029,13.3024,4.60084,2470.787,2023-6-13T04:00:10Z
2023-06-13T02:00:59Z,42.805,6.029,13.3025,4.60085,2470.81,2023-6-13T04:03:13Z
2023-06-13T02:04:02Z,42.805,6.029,13.3024,4.60081,2470.787,2023-6-13T04:06:16Z
2023-06-13T02:07:05Z,42.805,6.029,13.3028,4.60081,2470.81,2023-6-13T04:09:19Z
2023-06-13T02:10:08Z,42.805,6.029,13.3026,4.60084,2470.787,2023-6-13T04:12:22Z
2023-06-13T02:13:11Z,42.805,6.029,13.3026,4.60082,2470.787,2023-6-13T04:15:25Z
2023-06-13T02:16:14Z,42.805,6.029,13.3027,4.60081,2470.824,2023-6-13T04:18:28Z
2023-06-13T02:19:17Z,42.805,6.029,13.3023,4.60081,2470.824,2023-6-13T04:21:31Z
2023-06-13T02:22:20Z,42.805,6.029,13.3022,4.60085,2470.81,2023-6-13T04:24:34Z
2023-06-13T02:25:23Z,42.805,6.029,13.3025,4.60082,2470.8,2023-6-13T04:27:37Z
2023-06-13T02:28:27Z,42.805,6.029,13.3026,4.60084,2470.787,2023-6-13T04:30:40Z
2023-06-13T02:31:30Z,42.805,6.029,13.3024,4.60081,2470.8,2023-6-13T04:33:44Z
2023-06-13T02:34:33Z,42.805,6.029,13.3023,4.60081,2470.824,2023-6-13T04:36:47Z
2023-06-13T02:37:36Z,42.805,6.029,13.3026,4.60087,2470.824,2023-6-13T04:39:50Z
2023-06-13T02:40:39Z,42.805,6.029,13.3026,4.60085,2470.81,2023-6-13T04:42:53Z
2023-06-13T02:43:42Z,42.805,6.029,13.3026,4.60087,2470.787,2023-6-13T04:45:56Z
2023-06-13T02:46:45Z,42.805,6.029,13.3021,4.60085,2470.833,2023-6-13T04:48:59Z
2023-06-13T02:49:48Z,42.805,6.029,13.3024,4.60081,2470.787,2023-6-13T04:52:02Z
2023-06-13T02:52:51Z,42.805,6.029,13.3026,4.60084,2470.824,2023-6-13T04:55:05Z
2023-06-13T02:55:54Z,42.805,6.029,13.3024,4.60081,2470.8,2023-6-13T04:58:08Z
2023-06-13T02:58:57Z,42.805,6.029,13.3024,4.60081,2470.81,2023-6-13T05:01:11Z
2023-06-13T03:02:00Z,42.805,6.029,13.3024,4.60084,2470.8,2023-6-13T05:04:14Z
2023-06-13T03:05:03Z,42.805,6.029,13.3021,4.60082,2470.8,2023-6-13T05:07:17Z
2023-06-13T03:08:07Z,42.805,6.029,13.3026,4.60083,2470.81,2023-6-13T05:10:21Z
2023-06-13T03:11:10Z,42.805,6.029,13.3023,4.60084,2470.787,2023-6-13T05:13:24Z
2023-06-13T03:14:13Z,42.805,6.029,13.3026,4.60082,2470.787,2023-6-13T05:16:27Z
2023-06-13T03:17:16Z,42.805,6.029,13.3024,4.60084,2470.787,2023-6-13T05:19:30Z
2023-06-13T03:20:19Z,42.805,6.029,13.3026,4.60084,2470.787,2023-6-13T05:22:33Z
2023-06-13T03:23:22Z,42.805,6.029,13.3021,4.60082,2470.81,2023-6-13T05:25:36Z
2023-06-13T03:26:25Z,42.805,6.029,13.3021,4.60083,2470.824,2023-6-13T05:28:39Z
2023-06-13T03:29:28Z,42.805,6.029,13.3024,4.60081,2470.8,2023-6-13T05:31:42Z
2023-06-13T03:32:31Z,42.805,6.029,13.3024,4.60083,2470.81,2023-6-13T05:34:45Z
2023-06-13T03:35:34Z,42.805,6.029,13.3021,4.60084,2470.824,2023-6-13T05:37:48Z
2023-06-13T03:38:37Z,42.805,6.029,13.3026,4.60086,2470.763,2023-6-13T05:40:51Z
2023-06-13T03:41:41Z,42.805,6.029,13.3021,4.60084,2470.796,2023-6-13T05:43:54Z
2023-06-13T03:44:44Z,42.805,6.029,13.3029,4.60084,2470.8,2023-6-13T05:46:58Z
2023-06-13T03:47:47Z,42.805,6.029,13.3026,4.60084,2470.833,2023-6-13T05:50:01Z
2023-06-13T03:50:50Z,42.805,6.029,13.3025,4.60084,2470.787,2023-6-13T05:53:04Z
2023-06-13T03:53:53Z,42.805,6.029,13.3026,4.60084,2470.833,2023-6-13T05:56:07Z
2023-06-13T03:56:56Z,42.805,6.029,13.3022,4.60081,2470.81,2023-6-13T05:59:10Z
2023-06-13T03:59:59Z,42.805,6.029,13.3026,4.60083,2470.81,2023-6-13T06:02:13Z
2023-06-13T04:03:02Z,42.805,6.029,13.3027,4.60087,2470.857,2023-6-13T06:05:16Z
2023-06-13T04:06:05Z,42.805,6.029,13.3026,4.60086,2470.787,2023-6-13T06:08:19Z
2023-06-13T04:09:08Z,42.805,6.029,13.3026,4.60081,2470.81,2023-6-13T06:11:22Z
2023-06-13T04:12:11Z,42.805,6.029,13.3021,4.60084,2470.787,2023-6-13T06:14:25Z
2023-06-13T04:15:14Z,42.805,6.029,13.3027,4.60084,2470.8,2023-6-13T06:17:28Z
2023-06-13T04:18:17Z,42.805,6.029,13.3025,4.60084,2470.8,2023-6-13T06:20:31Z
2023-06-13T04:21:21Z,42.805,6.029,13.3025,4.60090,2470.833,2023-6-13T06:23:34Z
2023-06-13T04:24:24Z,42.805,6.029,13.3025,4.60084,2470.824,2023-6-13T06:26:38Z
2023-06-13T04:27:27Z,42.805,6.029,13.3023,4.60084,2470.824,2023-6-13T06:29:41Z
2023-06-13T04:30:30Z,42.805,6.029,13.3020,4.60084,2470.824,2023-6-13T06:32:44Z
2023-06-13T04:33:33Z,42.805,6.029,13.3023,4.60084,2470.847,2023-6-13T06:35:47Z
2023-06-13T04:36:36Z,42.805,6.029,13.3021,4.60086,2470.824,2023-6-13T06:38:50Z
2023-06-13T04:39:39Z,42.805,6.029,13.3028,4.60083,2470.787,2023-6-13T06:41:53Z
2023-06-13T04:42:42Z,42.805,6.029,13.3027,4.60084,2470.824,2023-6-13T06:44:56Z
2023-06-13T04:45:45Z,42.805,6.029,13.3021,4.60084,2470.787,2023-6-13T06:47:59Z
2023-06-13T04:48:48Z,42.805,6.029,13.3024,4.60085,2470.81,2023-6-13T06:51:02Z
2023-06-13T04:51:51Z,42.805,6.029,13.3024,4.60085,2470.787,2023-6-13T06:54:05Z
2023-06-13T04:54:54Z,42.805,6.029,13.3026,4.60084,2470.8,2023-6-13T06:57:08Z
2023-06-13T04:57:58Z,42.805,6.029,13.3028,4.60084,2470.787,2023-6-13T07:00:11Z
2023-06-13T05:01:01Z,42.805,6.029,13.3024,4.60082,2470.8,2023-6-13T07:03:15Z
2023-06-13T05:04:04Z,42.805,6.029,13.3023,4.60086,2470.777,2023-6-13T07:06:18Z
2023-06-13T05:07:07Z,42.805,6.029,13.3026,4.60084,2470.74,2023-6-13T07:09:21Z
2023-06-13T05:10:10Z,42.805,6.029,13.3026,4.60086,2470.8,2023-6-13T07:12:24Z
2023-06-13T05:13:13Z,42.805,6.029,13.3030,4.60085,2470.787,2023-6-13T07:15:27Z
2023-06-13T05:16:16Z,42.805,6.029,13.3024,4.60084,2470.8,2023-6-13T07:18:30Z
2023-06-13T05:19:19Z,42.805,6.029,13.3021,4.60086,2470.787,2023-6-13T07:21:33Z
2023-06-13T05:22:22Z,42.805,6.029,13.3025,4.60085,2470.763,2023-6-13T07:24:36Z
2023-06-13T05:25:25Z,42.805,6.029,13.3024,4.60086,2470.824,2023-6-13T07:27:39Z
2023-06-13T05:28:28Z,42.805,6.029,13.3022,4.60088,2470.8,2023-6-13T07:30:42Z
2023-06-13T05:31:31Z,42.805,6.029,13.3024,4.60084,2470.8,2023-6-13T07:33:45Z
2023-06-13T05:34:34Z,42.805,6.029,13.3026,4.60086,2470.777,2023-6-13T07:36:48Z
2023-06-13T05:37:38Z,42.805,6.029,13.3022,4.60083,2470.787,2023-6-13T07:39:51Z
2023-06-13T05:40:41Z,42.805,6.029,13.3025,4.60084,2470.787,2023-6-13T07:42:55Z
2023-06-13T05:43:44Z,42.805,6.029,13.3024,4.60085,2470.777,2023-6-13T07:45:58Z
2023-06-13T05:46:47Z,42.805,6.029,13.3024,4.60085,2470.777,2023-6-13T07:49:01Z
2023-06-13T05:49:50Z,42.805,6.029,13.3027,4.60084,2470.74,2023-6-13T07:52:04Z
2023-06-13T05:52:53Z,42.805,6.029,13.3026,4.60087,2470.787,2023-6-13T07:55:07Z
2023-06-13T05:55:56Z,42.805,6.029,13.3027,4.60083,2470.777,2023-6-13T07:58:10Z
2023-06-13T05:58:59Z,42.805,6.029,13.3026,4.60084,2470.777,2023-6-13T08:01:13Z
2023-06-13T06:02:02Z,42.805,6.029,13.3021,4.60083,2470.763,2023-6-13T08:04:16Z
2023-06-13T06:05:05Z,42.805,6.029,13.3029,4.60083,2470.787,2023-6-13T08:07:19Z
2023-06-13T06:08:08Z,42.805,6.029,13.3026,4.60085,2470.777,2023-6-13T08:10:22Z
2023-06-13T06:11:11Z,42.805,6.029,13.3024,4.60086,2470.74,2023-6-13T08:13:25Z
2023-06-13T06:14:15Z,42.805,6.029,13.3026,4.60084,2470.74,2023-6-13T08:16:28Z
2023-06-13T06:17:18Z,42.805,6.029,13.3026,4.60086,2470.787,2023-6-13T08:19:32Z
2023-06-13T06:20:21Z,42.805,6.029,13.3025,4.60084,2470.74,2023-6-13T08:22:35Z
2023-06-13T06:23:24Z,42.805,6.029,13.3029,4.60084,2470.763,2023-6-13T08:25:38Z
2023-06-13T06:26:27Z,42.805,6.029,13.3023,4.60084,2470.717,2023-6-13T08:28:41Z
2023-06-13T06:29:30Z,42.805,6.029,13.3025,4.60082,2470.777,2023-6-13T08:31:44Z
2023-06-13T06:32:32Z,42.805,6.029,13.3024,4.60085,2470.777,2023-6-13T08:34:46Z
2023-06-13T06:35:35Z,42.805,6.029,13.3024,4.60084,2470.693,2023-6-13T08:37:49Z
2023-06-13T06:38:38Z,42.805,6.029,13.3025,4.60085,2470.74,2023-6-13T08:40:52Z
2023-06-13T06:41:41Z,42.805,6.029,13.3026,4.60084,2470.74,2023-6-13T08:43:55Z
2023-06-13T06:44:44Z,42.805,6.029,13.3024,4.60084,2470.717,2023-6-13T08:46:58Z
2023-06-13T06:47:47Z,42.805,6.029,13.3026,4.60084,2470.74,2023-6-13T08:50:01Z
2023-06-13T06:50:50Z,42.805,6.029,13.3024,4.60086,2470.717,2023-6-13T08:53:04Z
2023-06-13T06:53:53Z,42.805,6.029,13.3021,4.60085,2470.754,2023-6-13T08:56:07Z
2023-06-13T06:56:56Z,42.805,6.029,13.3023,4.60083,2470.754,2023-6-13T08:59:10Z
2023-06-13T06:59:59Z,42.805,6.029,13.3026,4.60083,2470.754,2023-6-13T09:02:13Z
2023-06-13T07:03:03Z,42.805,6.029,13.3021,4.60084,2470.717,2023-6-13T09:05:16Z
2023-06-13T07:06:06Z,42.805,6.029,13.3025,4.60082,2470.74,2023-6-13T09:08:20Z
2023-06-13T07:09:09Z,42.805,6.029,13.3024,4.60084,2470.707,2023-6-13T09:11:23Z
2023-06-13T07:12:12Z,42.805,6.029,13.3023,4.60082,2470.717,2023-6-13T09:14:26Z
2023-06-13T07:15:15Z,42.805,6.029,13.3024,4.60082,2470.717,2023-6-13T09:17:29Z
2023-06-13T07:18:18Z,42.805,6.029,13.3025,4.60083,2470.717,2023-6-13T09:20:32Z
2023-06-13T07:21:21Z,42.805,6.029,13.3029,4.60084,2470.693,2023-6-13T09:23:35Z
2023-06-13T07:24:24Z,42.805,6.029,13.3024,4.60084,2470.73,2023-6-13T09:26:38Z
2023-06-13T07:27:27Z,42.805,6.029,13.3024,4.60081,2470.717,2023-6-13T09:29:41Z
2023-06-13T07:30:30Z,42.805,6.029,13.3026,4.60081,2470.717,2023-6-13T09:32:44Z
2023-06-13T07:33:33Z,42.805,6.029,13.3026,4.60083,2470.693,2023-6-13T09:35:47Z
2023-06-13T07:36:36Z,42.805,6.029,13.3025,4.60082,2470.73,2023-6-13T09:38:50Z
2023-06-13T07:39:40Z,42.805,6.029,13.3024,4.60083,2470.684,2023-6-13T09:41:54Z
2023-06-13T07:42:43Z,42.805,6.029,13.3027,4.60084,2470.707,2023-6-13T09:44:57Z
2023-06-13T07:45:46Z,42.805,6.029,13.3021,4.60081,2470.693,2023-6-13T09:48:00Z
2023-06-13T07:48:49Z,42.805,6.029,13.3021,4.60084,2470.717,2023-6-13T09:51:03Z
2023-06-13T07:51:52Z,42.805,6.029,13.3024,4.60083,2470.73,2023-6-13T09:54:06Z
2023-06-13T07:54:55Z,42.805,6.029,13.3024,4.60084,2470.717,2023-6-13T09:57:09Z
2023-06-13T07:57:58Z,42.805,6.029,13.3023,4.60082,2470.693,2023-6-13T10:00:12Z
2023-06-13T08:01:01Z,42.805,6.029,13.3024,4.60081,2470.693,2023-6-13T10:03:15Z
2023-06-13T08:04:04Z,42.805,6.029,13.3026,4.60081,2470.693,2023-6-13T10:06:18Z
2023-06-13T08:07:07Z,42.805,6.029,13.3021,4.60081,2470.693,2023-6-13T10:09:21Z
2023-06-13T08:10:10Z,42.805,6.029,13.3024,4.60082,2470.67,2023-6-13T10:12:24Z
2023-06-13T08:13:13Z,42.805,6.029,13.3024,4.60080,2470.693,2023-6-13T10:15:27Z
2023-06-13T08:16:17Z,42.805,6.029,13.3023,4.60082,2470.693,2023-6-13T10:18:30Z
2023-06-13T08:19:20Z,42.805,6.029,13.3021,4.60081,2470.684,2023-6-13T10:21:34Z
2023-06-13T08:22:23Z,42.805,6.029,13.3022,4.60082,2470.693,2023-6-13T10:24:37Z
2023-06-13T08:25:26Z,42.805,6.029,13.3026,4.60081,2470.67,2023-6-13T10:27:40Z
2023-06-13T08:28:29Z,42.805,6.029,13.3025,4.60081,2470.707,2023-6-13T10:30:43Z
2023-06-13T08:31:30Z,42.805,6.029,13.3026,4.60081,2470.646,2023-6-13T10:33:44Z
2023-06-13T08:34:33Z,42.805,6.029,13.3021,4.60081,2470.624,2023-6-13T10:36:47Z
2023-06-13T08:37:37Z,42.805,6.029,13.3024,4.60081,2470.624,2023-6-13T10:39:51Z
2023-06-13T08:40:40Z,42.805,6.029,13.3024,4.60081,2470.67,2023-6-13T10:42:54Z
2023-06-13T08:43:43Z,42.805,6.029,13.3026,4.60080,2470.646,2023-6-13T10:45:57Z
2023-06-13T08:46:46Z,42.805,6.029,13.3022,4.60083,2470.646,2023-6-13T10:49:00Z
2023-06-13T08:49:49Z,42.805,6.029,13.3024,4.60080,2470.646,2023-6-13T10:52:03Z
2023-06-13T08:52:52Z,42.805,6.029,13.3024,4.60081,2470.67,2023-6-13T10:55:06Z
2023-06-13T08:55:55Z,42.805,6.029,13.3024,4.60080,2470.684,2023-6-13T10:58:09Z
2023-06-13T08:58:58Z,42.805,6.029,13.3026,4.60080,2470.646,2023-6-13T11:01:12Z
2023-06-13T09:02:01Z,42.805,6.029,13.3023,4.60080,2470.646,2023-6-13T11:04:15Z
2023-06-13T09:05:04Z,42.805,6.029,13.3021,4.60083,2470.646,2023-6-13T11:07:18Z
2023-06-13T09:08:07Z,42.805,6.029,13.3024,4.60081,2470.624,2023-6-13T11:10:21Z
2023-06-13T09:11:11Z,42.805,6.029,13.3026,4.60085,2470.624,2023-6-13T11:13:24Z
2023-06-13T09:14:14Z,42.805,6.029,13.3023,4.60081,2470.646,2023-6-13T11:16:28Z
2023-06-13T09:17:17Z,42.805,6.029,13.3021,4.60080,2470.684,2023-6-13T11:19:31Z
2023-06-13T09:20:20Z,42.805,6.029,13.3021,4.60080,2470.637,2023-6-13T11:22:34Z
2023-06-13T09:23:23Z,42.805,6.029,13.3020,4.60081,2470.67,2023-6-13T11:25:37Z
2023-06-13T09:26:26Z,42.805,6.029,13.3023,4.60080,2470.624,2023-6-13T11:28:40Z
2023-06-13T09:29:29Z,42.805,6.029,13.3021,4.60081,2470.684,2023-6-13T11:31:43Z
2023-06-13T09:32:32Z,42.805,6.029,13.3023,4.60081,2470.661,2023-6-13T11:34:46Z
2023-06-13T09:35:35Z,42.805,6.029,13.3024,4.60080,2470.646,2023-6-13T11:37:49Z
2023-06-13T09:38:38Z,42.805,6.029,13.3026,4.60081,2470.646,2023-6-13T11:40:52Z
2023-06-13T09:41:41Z,42.805,6.029,13.3021,4.60083,2470.637,2023-6-13T11:43:55Z
2023-06-13T09:44:44Z,42.805,6.029,13.3019,4.60080,2470.661,2023-6-13T11:46:58Z
2023-06-13T09:47:48Z,42.805,6.029,13.3024,4.60084,2470.624,2023-6-13T11:50:01Z
2023-06-13T09:50:51Z,42.805,6.029,13.3022,4.60080,2470.637,2023-6-13T11:53:05Z
2023-06-13T09:53:54Z,42.805,6.029,13.3022,4.60081,2470.646,2023-6-13T11:56:08Z
2023-06-13T09:56:57Z,42.805,6.029,13.3021,4.60080,2470.67,2023-6-13T11:59:11Z
2023-06-13T10:00:00Z,42.805,6.029,13.3024,4.60079,2470.637,2023-6-13T12:02:14Z
2023-06-13T10:03:03Z,42.805,6.029,13.3022,4.60079,2470.661,2023-6-13T12:05:17Z
2023-06-13T10:06:06Z,42.805,6.029,13.3025,4.60080,2470.624,2023-6-13T12:08:20Z
2023-06-13T10:09:09Z,42.805,6.029,13.3024,4.60082,2470.637,2023-6-13T12:11:23Z
2023-06-13T10:12:12Z,42.805,6.029,13.3023,4.60082,2470.614,2023-6-13T12:14:26Z
2023-06-13T10:15:15Z,42.805,6.029,13.3024,4.60081,2470.624,2023-6-13T12:17:29Z
2023-06-13T10:18:18Z,42.805,6.029,13.3026,4.60081,2470.624,2023-6-13T12:20:32Z
2023-06-13T10:21:21Z,42.805,6.029,13.3021,4.60079,2470.637,2023-6-13T12:23:35Z
2023-06-13T10:24:25Z,42.805,6.029,13.3021,4.60078,2470.6,2023-6-13T12:26:38Z
2023-06-13T10:27:28Z,42.805,6.029,13.3025,4.60081,2470.624,2023-6-13T12:29:42Z
2023-06-13T10:30:29Z,42.805,6.029,13.3021,4.60081,2470.6,2023-6-13T12:32:43Z
2023-06-13T10:33:32Z,42.805,6.029,13.3024,4.60081,2470.646,2023-6-13T12:35:46Z
2023-06-13T10:36:35Z,42.805,6.029,13.3021,4.60081,2470.624,2023-6-13T12:38:49Z
2023-06-13T10:39:38Z,42.805,6.029,13.3024,4.60079,2470.624,2023-6-13T12:41:52Z
2023-06-13T10:42:41Z,42.805,6.029,13.3024,4.60081,2470.646,2023-6-13T12:44:55Z
2023-06-13T10:45:44Z,42.805,6.029,13.3020,4.60080,2470.624,2023-6-13T12:47:58Z
2023-06-13T10:48:48Z,42.805,6.029,13.3023,4.60079,2470.646,2023-6-13T12:51:02Z
2023-06-13T10:51:51Z,42.805,6.029,13.3024,4.60081,2470.637,2023-6-13T12:54:05Z
2023-06-13T10:54:54Z,42.805,6.029,13.3020,4.60080,2470.624,2023-6-13T12:57:08Z
2023-06-13T10:57:57Z,42.805,6.029,13.3020,4.60080,2470.646,2023-6-13T13:00:11Z
2023-06-13T11:01:00Z,42.805,6.029,13.3016,4.60081,2470.646,2023-6-13T13:03:14Z
2023-06-13T11:04:03Z,42.805,6.029,13.3021,4.60081,2470.661,2023-6-13T13:06:17Z
2023-06-13T11:07:06Z,42.805,6.029,13.3023,4.60080,2470.646,2023-6-13T13:09:20Z
2023-06-13T11:10:09Z,42.805,6.029,13.3022,4.60079,2470.646,2023-6-13T13:12:23Z
2023-06-13T11:13:12Z,42.805,6.029,13.3022,4.60080,2470.624,2023-6-13T13:15:26Z
2023-06-13T11:16:15Z,42.805,6.029,13.3022,4.60079,2470.624,2023-6-13T13:18:29Z
2023-06-13T11:19:18Z,42.805,6.029,13.3024,4.60080,2470.624,2023-6-13T13:21:32Z
2023-06-13T11:22:22Z,42.805,6.029,13.3020,4.60079,2470.637,2023-6-13T13:24:35Z
2023-06-13T11:25:25Z,42.805,6.029,13.3024,4.60079,2470.67,2023-6-13T13:27:39Z
2023-06-13T11:28:28Z,42.805,6.029,13.3023,4.60080,2470.646,2023-6-13T13:30:42Z
2023-06-13T11:31:31Z,42.805,6.029,13.3023,4.60079,2470.646,2023-6-13T13:33:45Z
2023-06-13T11:34:34Z,42.805,6.029,13.3021,4.60079,2470.693,2023-6-13T13:36:48Z
2023-06-13T11:37:37Z,42.805,6.029,13.3021,4.60079,2470.67,2023-6-13T13:39:51Z
2023-06-13T11:40:40Z,42.805,6.029,13.3019,4.60080,2470.67,2023-6-13T13:42:54Z
2023-06-13T11:43:43Z,42.805,6.029,13.3022,4.60080,2470.646,2023-6-13T13:45:57Z
2023-06-13T11:46:46Z,42.805,6.029,13.3016,4.60081,2470.646,2023-6-13T13:49:00Z
2023-06-13T11:49:49Z,42.805,6.029,13.3021,4.60079,2470.646,2023-6-13T13:52:03Z
2023-06-13T11:52:52Z,42.805,6.029,13.3024,4.60080,2470.684,2023-6-13T13:55:06Z
2023-06-13T11:55:55Z,42.805,6.029,13.3021,4.60080,2470.646,2023-6-13T13:58:09Z
2023-06-13T11:58:59Z,42.805,6.029,13.3024,4.60079,2470.684,2023-6-13T14:01:13Z
2023-06-13T12:02:02Z,42.805,6.029,13.3026,4.60080,2470.67,2023-6-13T14:04:16Z
2023-06-13T12:05:05Z,42.805,6.029,13.3024,4.60079,2470.646,2023-6-13T14:07:19Z
2023-06-13T12:08:08Z,42.805,6.029,13.3021,4.60080,2470.684,2023-6-13T14:10:22Z
2023-06-13T12:11:11Z,42.805,6.029,13.3024,4.60081,2470.707,2023-6-13T14:13:25Z
2023-06-13T12:14:14Z,42.805,6.029,13.3022,4.60080,2470.67,2023-6-13T14:16:28Z
2023-06-13T12:17:17Z,42.805,6.029,13.3024,4.60084,2470.646,2023-6-13T14:19:31Z
2023-06-13T12:20:20Z,42.805,6.029,13.3021,4.60080,2470.684,2023-6-13T14:22:34Z
2023-06-13T12:23:23Z,42.805,6.029,13.3025,4.60080,2470.67,2023-6-13T14:25:37Z
2023-06-13T12:26:26Z,42.805,6.029,13.3024,4.60080,2470.707,2023-6-13T14:28:40Z
2023-06-13T12:29:29Z,42.805,6.029,13.3021,4.60081,2470.684,2023-6-13T14:31:43Z
2023-06-13T12:32:33Z,42.805,6.029,13.3025,4.60080,2470.73,2023-6-13T14:34:46Z
2023-06-13T12:35:36Z,42.805,6.029,13.3021,4.60081,2470.693,2023-6-13T14:37:50Z
2023-06-13T12:38:39Z,42.805,6.029,13.3023,4.60081,2470.67,2023-6-13T14:40:53Z
2023-06-13T12:41:42Z,42.805,6.029,13.3020,4.60080,2470.717,2023-6-13T14:43:56Z
2023-06-13T12:44:45Z,42.805,6.029,13.3024,4.60081,2470.67,2023-6-13T14:46:59Z
2023-06-13T12:47:48Z,42.805,6.029,13.3024,4.60081,2470.693,2023-6-13T14:50:02Z
2023-06-13T12:50:51Z,42.805,6.029,13.3024,4.60083,2470.693,2023-6-13T14:53:05Z
2023-06-13T12:53:54Z,42.805,6.029,13.3025,4.60083,2470.717,2023-6-13T14:56:08Z
2023-06-13T12:56:57Z,42.805,6.029,13.3027,4.60080,2470.717,2023-6-13T14:59:11Z
2023-06-13T13:00:00Z,42.805,6.029,13.3025,4.60081,2470.693,2023-6-13T15:02:14Z
2023-06-13T13:03:03Z,42.805,6.029,13.3024,4.60081,2470.707,2023-6-13T15:05:17Z
2023-06-13T13:06:06Z,42.805,6.029,13.3026,4.60081,2470.693,2023-6-13T15:08:20Z
2023-06-13T13:09:10Z,42.805,6.029,13.3024,4.60081,2470.74,2023-6-13T15:11:23Z
2023-06-13T13:12:13Z,42.805,6.029,13.3021,4.60081,2470.661,2023-6-13T15:14:27Z
2023-06-13T13:15:16Z,42.805,6.029,13.3023,4.60081,2470.693,2023-6-13T15:17:30Z
2023-06-13T13:18:19Z,42.805,6.029,13.3029,4.60083,2470.717,2023-6-13T15:20:33Z
2023-06-13T13:21:22Z,42.805,6.029,13.3021,4.60081,2470.717,2023-6-13T15:23:36Z
2023-06-13T13:24:25Z,42.805,6.029,13.3026,4.60084,2470.73,2023-6-13T15:26:39Z
2023-06-13T13:27:28Z,42.805,6.029,13.3026,4.60083,2470.693,2023-6-13T15:29:42Z
2023-06-13T13:30:31Z,42.805,6.029,13.3024,4.60082,2470.717,2023-6-13T15:32:45Z
2023-06-13T13:33:34Z,42.805,6.029,13.3024,4.60081,2470.693,2023-6-13T15:35:48Z
2023-06-13T13:36:37Z,42.805,6.029,13.3024,4.60080,2470.717,2023-6-13T15:38:51Z
2023-06-13T13:39:40Z,42.805,6.029,13.3026,4.60084,2470.703,2023-6-13T15:41:54Z
2023-06-13T13:42:44Z,42.805,6.029,13.3022,4.60081,2470.693,2023-6-13T15:44:57Z
2023-06-13T13:45:47Z,42.805,6.029,13.3023,4.60081,2470.754,2023-6-13T15:48:01Z
2023-06-13T13:48:50Z,42.805,6.029,13.3026,4.60082,2470.707,2023-6-13T15:51:04Z
2023-06-13T13:51:53Z,42.805,6.029,13.3023,4.60081,2470.717,2023-6-13T15:54:07Z
2023-06-13T13:54:56Z,42.805,6.029,13.3022,4.60083,2470.693,2023-6-13T15:57:10Z
2023-06-13T13:57:59Z,42.805,6.029,13.3024,4.60080,2470.707,2023-6-13T16:00:13Z
2023-06-13T14:01:02Z,42.805,6.029,13.3024,4.60081,2470.73,2023-6-13T16:03:16Z
2023-06-13T14:04:05Z,42.805,6.029,13.3025,4.60083,2470.717,2023-6-13T16:06:19Z
2023-06-13T14:07:08Z,42.805,6.029,13.3024,4.60081,2470.717,2023-6-13T16:09:22Z
2023-06-13T14:10:11Z,42.805,6.029,13.3019,4.60084,2470.754,2023-6-13T16:12:25Z
2023-06-13T14:13:14Z,42.805,6.029,13.3022,4.60081,2470.73,2023-6-13T16:15:28Z
2023-06-13T14:16:17Z,42.805,6.029,13.3027,4.60082,2470.717,2023-6-13T16:18:31Z
2023-06-13T14:19:21Z,42.805,6.029,13.3024,4.60082,2470.707,2023-6-13T16:21:34Z
2023-06-13T14:22:24Z,42.805,6.029,13.3024,4.60084,2470.717,2023-6-13T16:24:38Z
2023-06-13T14:25:27Z,42.805,6.029,13.3022,4.60081,2470.693,2023-6-13T16:27:41Z
2023-06-13T14:28:30Z,42.805,6.029,13.3025,4.60080,2470.717,2023-6-13T16:30:44Z
2023-06-13T14:31:32Z,42.805,6.029,13.3024,4.60081,2470.74,2023-6-13T16:33:46Z
2023-06-13T14:34:35Z,42.805,6.029,13.3025,4.60081,2470.73,2023-6-13T16:36:49Z
2023-06-13T14:37:38Z,42.805,6.029,13.3024,4.60079,2470.73,2023-6-13T16:39:52Z
2023-06-13T14:40:41Z,42.805,6.029,13.3024,4.60081,2470.693,2023-6-13T16:42:55Z
2023-06-13T14:43:44Z,42.805,6.029,13.3025,4.60081,2470.717,2023-6-13T16:45:58Z
2023-06-13T14:46:47Z,42.805,6.029,13.3027,4.60081,2470.754,2023-6-13T16:49:01Z
2023-06-13T14:49:50Z,42.805,6.029,13.3024,4.60081,2470.754,2023-6-13T16:52:04Z
2023-06-13T14:52:53Z,42.805,6.029,13.3027,4.60080,2470.73,2023-6-13T16:55:07Z
2023-06-13T14:55:56Z,42.805,6.029,13.3023,4.60081,2470.763,2023-6-13T16:58:10Z
2023-06-13T14:58:59Z,42.805,6.029,13.3024,4.60081,2470.74,2023-6-13T17:01:13Z
2023-06-13T15:02:03Z,42.805,6.029,13.3024,4.60081,2470.754,2023-6-13T17:04:16Z
2023-06-13T15:05:06Z,42.805,6.029,13.3026,4.60081,2470.74,2023-6-13T17:07:20Z
2023-06-13T15:08:09Z,42.805,6.029,13.3021,4.60081,2470.763,2023-6-13T17:10:23Z
2023-06-13T15:11:12Z,42.805,6.029,13.3024,4.60084,2470.8,2023-6-13T17:13:26Z
2023-06-13T15:14:15Z,42.805,6.029,13.3025,4.60081,2470.763,2023-6-13T17:16:29Z